Weather History for Worland, WY

Change the Weather History Date:

Monday, August 19, 2013

  Actual Average Record
Temperature  
Mean Temperature 77 °F 70 °F  
Max Temperature 97 °F 87 °F 98 °F (1988)
Min Temperature 57 °F 52 °F 42 °F (1995)
Degree Days  
Heating Degree Days 0 1  
Month to date heating degree days 0 3  
Since 1 June heating degree days 45 109  
Since 1 July heating degree days 0 16  
Cooling Degree Days 12 5  
Month to date cooling degree days 156 132  
Year to date cooling degree days 639 457  
Since 1 June cooling degree days 622 445  
Growing Degree Days 28 (Base 50)    
Moisture  
Dew Point 41 °F    
Average Humidity 31    
Maximum Humidity 52    
Minimum Humidity 10    
Precipitation  
Precipitation 0.00 in 0.01 in 0.12 in (2007)
Month to date precipitation 0.07 0.27  
Year to date precipitation 3.15 5.29  
Sea Level Pressure  
Sea Level Pressure 29.86 in    
Wind  
Wind Speed 5 mph (East)    
Max Wind Speed 13 mph    
Max Gust Speed 14 mph    
Visibility 10 miles    
Events      
T = Trace of Precipitation, MM = Missing Value Source: NWS Daily Summary

Daily Weather History Graph

Daily Weather History Graph

Search for Another Location

Airport:

Trip Planner

Search our weather history database for the weather conditions in past years. The results will help you decide how hot, cold, wet, or windy it might be!

Date:

Astronomy

Aug. 19, 2013 Rise Set
Actual Time 6:20 AM MDT 8:09 PM MDT
Civil Twilight 5:49 AM MDT 8:39 PM MDT
Nautical Twilight 5:12 AM MDT 9:17 PM MDT
Astronomical Twilight 4:31 AM MDT 9:57 PM MDT
Moon 7:02 PM MDT (8/19) 4:42 AM MDT (8/19)
Length of Visible Light 14h 50m
Length of Day
13h 48m
Waxing Gibbous, 97% of the Moon is Illuminated
Aug 19
Waxing Gibbous
Aug 20
Full
Aug 28
Last Quarter
Sep 5
New
Sep 12
First Quarter

Hourly Weather History & Observations

Time (MDT) Temp. Dew Point Humidity Pressure Visibility Wind Dir Wind Speed Gust Speed Precip Events Conditions
12:53 AM 73.0 °F 46.9 °F 39% 29.88 in 10.0 mi ESE 5.8 mph - N/A   Partly Cloudy
1:53 AM 66.0 °F 45.0 °F 47% 29.89 in 10.0 mi SSW 5.8 mph - N/A   Clear
2:53 AM 64.0 °F 44.1 °F 48% 29.89 in 10.0 mi South 5.8 mph - N/A   Clear
3:53 AM 61.0 °F 43.0 °F 52% 29.90 in 10.0 mi SSE 5.8 mph - N/A   Clear
4:53 AM 60.1 °F 42.1 °F 51% 29.90 in 10.0 mi Calm Calm - N/A   Clear
5:53 AM 60.1 °F 41.0 °F 49% 29.91 in 10.0 mi South 5.8 mph - N/A   Clear
6:53 AM 64.9 °F 39.9 °F 40% 29.91 in 10.0 mi South 9.2 mph - N/A   Clear
7:53 AM 62.1 °F 44.1 °F 52% 29.94 in 10.0 mi SSW 5.8 mph - N/A   Clear
8:53 AM 71.1 °F 39.9 °F 32% 29.94 in 10.0 mi ESE 3.5 mph - N/A   Clear
9:53 AM 73.9 °F 46.0 °F 37% 29.94 in 10.0 mi NW 6.9 mph - N/A   Clear
10:53 AM 80.1 °F 45.0 °F 29% 29.91 in 10.0 mi North 4.6 mph - N/A   Clear
11:53 AM 84.0 °F 46.0 °F 26% 29.89 in 10.0 mi North 6.9 mph - N/A   Clear
12:53 PM 88.0 °F 46.9 °F 24% 29.87 in 10.0 mi Variable 3.5 mph - N/A   Clear
1:53 PM 89.1 °F 43.0 °F 20% 29.86 in 10.0 mi Variable 3.5 mph - N/A   Clear
2:53 PM 93.0 °F 39.9 °F 16% 29.83 in 9.0 mi WNW 4.6 mph - N/A   Clear
3:53 PM 95.0 °F 39.0 °F 14% 29.81 in 9.0 mi Variable 3.5 mph - N/A   Clear
4:53 PM 96.1 °F 30.0 °F 10% 29.78 in 10.0 mi North 6.9 mph - N/A   Clear
5:53 PM 93.9 °F 33.1 °F 12% 29.77 in 10.0 mi North 5.8 mph - N/A   Clear
6:53 PM 91.0 °F 37.9 °F 15% 29.76 in 9.0 mi NNE 3.5 mph - N/A   Clear
7:53 PM 82.0 °F 42.1 °F 24% 29.79 in 10.0 mi NNE 4.6 mph - N/A   Clear
8:53 PM 75.9 °F 37.9 °F 25% 29.79 in 10.0 mi NNE 4.6 mph - N/A   Clear
9:53 PM 72.0 °F 33.1 °F 24% 29.81 in 10.0 mi Calm Calm - N/A   Clear
10:53 PM 71.1 °F 33.1 °F 25% 29.80 in 10.0 mi SSW 8.1 mph - N/A   Clear
11:53 PM 68.0 °F 34.0 °F 28% 29.81 in 10.0 mi North - - N/A   Clear